Weather History for KUAO - October, 2012

Change the Weather History Date:

Thursday, October 4, 2012

  Actual Average Record
Temperature  
Mean Temperature 62 °F -  
Max Temperature 74 °F - - ()
Min Temperature 51 °F - - ()
Degree Days  
Heating Degree Days 2    
Month to date heating degree days 15  
Since 1 July heating degree days 132  
Cooling Degree Days 0    
Month to date cooling degree days 1  
Year to date cooling degree days 295  
Growing Degree Days 12 (Base 50)    
Moisture  
Dew Point 29 °F    
Average Humidity 34    
Maximum Humidity 50    
Minimum Humidity 17    
Precipitation  
Precipitation 0.00 in - - ()
Month to date precipitation 0.00  
Year to date precipitation 29.97  
Sea Level Pressure  
Sea Level Pressure 30.14 in    
Wind  
Wind Speed 12 mph (NNE)    
Max Wind Speed 20 mph    
Max Gust Speed 25 mph    
Visibility 10 miles    
Events      
T = Trace of Precipitation, MM = Missing Value Source: NWS Daily Summary

Daily Weather History Graph

Daily Weather History Graph

Search for Another Location

Airport or City:

Trip Planner

Search our weather history database for the weather conditions in past years. The results will help you decide how hot, cold, wet, or windy it might be!

Date:

Astronomy

Oct. 04, 2012 Rise Set
Actual Time 7:13 AM PDT 6:44 PM PDT
Civil Twilight 6:44 AM PDT 7:14 PM PDT
Nautical Twilight 6:10 AM PDT 7:48 PM PDT
Astronomical Twilight 5:35 AM PDT 8:22 PM PDT
Moon 9:11 PM PDT (10/4) 11:48 AM PDT (10/4)
Length of Visible Light 12h 29m
Length of Day
11h 30m
Waning Gibbous, 81% of the Moon is Illuminated
Oct 4
Waning Gibbous
Oct 8
Last Quarter
Oct 15
New
Oct 21
First Quarter
Oct 29
Full

Hourly Weather History & Observations

Time (PDT) Temp. Dew Point Humidity Pressure Visibility Wind Dir Wind Speed Gust Speed Precip Events Conditions
12:53 AM 55.0 °F 30.0 °F 38% 30.15 in 10.0 mi North 11.5 mph - N/A   Clear
1:53 AM 55.0 °F 30.0 °F 38% 30.13 in 10.0 mi NNE 10.4 mph - N/A   Clear
2:53 AM 53.1 °F 30.9 °F 43% 30.14 in 10.0 mi North 8.1 mph - N/A   Clear
3:53 AM 52.0 °F 32.0 °F 47% 30.13 in 10.0 mi North 9.2 mph - N/A   Clear
4:53 AM 52.0 °F 33.1 °F 49% 30.13 in 10.0 mi North 11.5 mph - N/A   Clear
5:53 AM 52.0 °F 32.0 °F 47% 30.14 in 10.0 mi North 12.7 mph - N/A   Clear
6:53 AM 52.0 °F 32.0 °F 47% 30.14 in 10.0 mi North 11.5 mph 18.4 mph N/A   Clear
7:53 AM 52.0 °F 32.0 °F 47% 30.14 in 10.0 mi North 11.5 mph - N/A   Clear
8:53 AM 55.9 °F 34.0 °F 44% 30.15 in 10.0 mi North 13.8 mph - N/A   Clear
9:53 AM 60.1 °F 34.0 °F 38% 30.15 in 10.0 mi North 13.8 mph - N/A   Clear
10:53 AM 64.0 °F 34.0 °F 33% 30.16 in 10.0 mi North 15.0 mph - N/A   Clear
11:53 AM 68.0 °F 32.0 °F 26% 30.15 in 10.0 mi NNE 12.7 mph 21.9 mph N/A   Clear
12:53 PM 72.0 °F 30.9 °F 22% 30.15 in 10.0 mi NNE 15.0 mph - N/A   Clear
1:53 PM 73.0 °F 28.9 °F 20% 30.13 in 10.0 mi NNE 12.7 mph - N/A   Clear
2:53 PM 73.0 °F 28.0 °F 19% 30.12 in 10.0 mi NE 11.5 mph 24.2 mph N/A   Clear
3:53 PM 73.9 °F 27.0 °F 18% 30.12 in 10.0 mi NNE 12.7 mph 21.9 mph N/A   Clear
4:53 PM 72.0 °F 26.1 °F 18% 30.13 in 10.0 mi NNE 12.7 mph 21.9 mph N/A   Clear
5:53 PM 69.1 °F 24.1 °F 18% 30.13 in 10.0 mi NNE 17.3 mph 23.0 mph N/A   Clear
6:53 PM 64.9 °F 24.1 °F 21% 30.14 in 10.0 mi NE 11.5 mph - N/A   Clear
7:53 PM 62.1 °F 23.0 °F 22% 30.14 in 10.0 mi NE 10.4 mph - N/A   Clear
8:53 PM 61.0 °F 21.9 °F 22% 30.14 in 10.0 mi NE 9.2 mph - N/A   Clear
9:53 PM 60.1 °F 21.0 °F 22% 30.15 in 10.0 mi NE 12.7 mph - N/A   Clear
10:53 PM 59.0 °F 21.9 °F 24% 30.16 in 10.0 mi NE 11.5 mph - N/A   Clear
11:53 PM 59.0 °F 21.9 °F 24% 30.17 in 10.0 mi NE 11.5 mph - N/A   Clear